This is the latest recevied weather packets stored in our database for station/object DG1ROH. If no packets are shown the sender has not sent any weather packets the latest 10 day(s).
| Time | Temp. | Humidity | Pressure | Rain* | Wind** | Luminosity | Snow |
|---|---|---|---|---|---|---|---|
| 1778342955 | 16.11° C | 62% | 1018.5 hPa | 0 mm | - | 139 W/m² | - |
| 1778342834 | 16.11° C | 59% | 1018.5 hPa | 0 mm | - | 149 W/m² | - |
| 1778342715 | 16.11° C | 60% | 1018.6 hPa | 0 mm | - | 149 W/m² | - |
| 1778342595 | 16.11° C | 60% | 1018.6 hPa | 0 mm | - | 153 W/m² | - |
| 1778342475 | 16.11° C | 60% | 1018.8 hPa | 0 mm | - | 151 W/m² | - |
| 1778342355 | 16.11° C | 61% | 1018.7 hPa | 0 mm | - | 149 W/m² | - |
| 1778342235 | 16.11° C | 61% | 1018.7 hPa | 0 mm | - | 151 W/m² | - |
| 1778342116 | 15.56° C | 60% | 1018.7 hPa | 0 mm | - | 151 W/m² | - |
| 1778341995 | 15.56° C | 58% | 1018.7 hPa | 0 mm | - | 149 W/m² | - |
| 1778341875 | 16.11° C | 60% | 1018.8 hPa | 0 mm | - | 148 W/m² | - |
| 1778341755 | 15.56° C | 58% | 1018.8 hPa | 0 mm | - | 142 W/m² | - |
| 1778341635 | 16.11° C | 58% | 1018.8 hPa | 0 mm | - | 142 W/m² | - |
| 1778341510 | 16.11° C | 59% | 1018.9 hPa | 0 mm | - | 151 W/m² | - |
| 1778341389 | 16.11° C | 61% | 1018.9 hPa | 0 mm | - | 153 W/m² | - |
| 1778341269 | 16.11° C | 61% | 1018.9 hPa | 0 mm | - | 153 W/m² | - |
| 1778341149 | 16.11° C | 63% | 1018.9 hPa | 0 mm | - | 144 W/m² | - |
| 1778341028 | 16.11° C | 61% | 1019 hPa | 0 mm | - | 144 W/m² | - |
| 1778340911 | 15.56° C | 59% | 1019.1 hPa | 0 mm | - | 153 W/m² | - |
| 1778340785 | 15.56° C | 59% | 1019.1 hPa | 0 mm | - | 155 W/m² | - |
| 1778340664 | 15.56° C | 58% | 1019.1 hPa | 0 mm | - | 153 W/m² | - |
| 1778340544 | 16.11° C | 59% | 1019.2 hPa | 0 mm | - | 155 W/m² | - |
| 1778340425 | 16.11° C | 59% | 1019.2 hPa | 0 mm | - | 153 W/m² | - |
| 1778340305 | 16.11° C | 62% | 1019.2 hPa | 0 mm | - | 149 W/m² | - |
| 1778340185 | 16.11° C | 59% | 1019.2 hPa | 0 mm | - | 144 W/m² | - |
| 1778340065 | 16.11° C | 60% | 1019.3 hPa | 0 mm | - | 144 W/m² | - |
* Rain latest hour (hover to see other rain measurements)
** Current wind speed in m/s (hover to see current wind gust speed)